Albert Lea, MN

11:02 AM CDT on July 24, 2017 (GMT -0500)
Albert Lea Municipal

Weather History for KAEL - April, 2013

Change the Weather History Date:

Sunday, April 7, 2013

  Actual Average Record
Temperature  
Mean Temperature 43 °F -  
Max Temperature 53 °F 49 °F 71 °F (2004)
Min Temperature 33 °F 32 °F 12 °F (2007)
Degree Days  
Heating Degree Days 22    
Moisture  
Dew Point 39 °F    
Average Humidity 89    
Maximum Humidity 100    
Minimum Humidity 71    
Precipitation  
Precipitation 0.04 in - - ()
Sea Level Pressure  
Sea Level Pressure 29.84 in    
Wind  
Wind Speed 7 mph (NNE)    
Max Wind Speed 15 mph    
Max Gust Speed 17 mph    
Visibility 6 miles    
Events Rain    
Averages and records for this station are not official NWS values.
T = Trace of Precipitation, MM = Missing Value Source: NWS Daily Summary

Daily Weather History Graph

Daily Weather History Graph

Search for Another Location

Airport or City:

Trip Planner

Search our weather history database for the weather conditions in past years. The results will help you decide how hot, cold, wet, or windy it might be!

Date:

Astronomy

Apr. 07, 2013 Rise Set
Actual Time 6:43 AM CDT 7:47 PM CDT
Civil Twilight 6:14 AM CDT 8:17 PM CDT
Nautical Twilight 5:39 AM CDT 8:52 PM CDT
Astronomical Twilight 5:02 AM CDT 9:29 PM CDT
Moon 5:06 AM CDT (4/7) 5:16 PM CDT (4/7)
Length of Visible Light 14h 02m
Length of Day
13h 03m
Waning Crescent, 8% of the Moon is Illuminated
Apr 7
Waning Crescent
Apr 10
New
Apr 18
First Quarter
Apr 25
Full
May 2
Last Quarter

Hourly Weather History & Observations

Time (CDT) Temp. Windchill Dew Point Humidity Pressure Visibility Wind Dir Wind Speed Gust Speed Precip Events Conditions
12:12 AM 39.2 °F 33.6 °F 37.4 °F 93% 29.76 in 10.0 mi NW 8.1 mph - N/A   Mostly Cloudy
12:32 AM 39.2 °F 33.0 °F 37.4 °F 93% 29.77 in 7.0 mi WNW 9.2 mph - N/A   Mostly Cloudy
12:53 AM 37.4 °F 30.8 °F 35.6 °F 93% 29.78 in 7.0 mi WNW 9.2 mph - N/A   Scattered Clouds
1:12 AM 37.4 °F 32.1 °F 35.6 °F 93% 29.78 in 7.0 mi NW 6.9 mph - N/A   Scattered Clouds
1:32 AM 37.4 °F 32.1 °F 35.6 °F 93% 29.79 in 5.0 mi NW 6.9 mph - N/A   Mostly Cloudy
1:53 AM 37.4 °F 30.8 °F 35.6 °F 93% 29.79 in 5.0 mi NW 9.2 mph - N/A   Overcast
2:12 AM 35.6 °F 29.9 °F 35.6 °F 100% 29.79 in 5.0 mi NNW 6.9 mph - N/A   Overcast
2:32 AM 35.6 °F 29.9 °F 35.6 °F 100% 29.79 in 3.0 mi NW 6.9 mph - N/A   Overcast
2:53 AM 35.6 °F 30.7 °F 35.6 °F 100% 29.81 in 2.5 mi WNW 5.8 mph - N/A   Overcast
3:12 AM 35.6 °F 30.7 °F 35.6 °F 100% 29.82 in 2.5 mi NW 5.8 mph - N/A   Overcast
3:32 AM 35.6 °F 31.7 °F 35.6 °F 100% 29.82 in 2.5 mi NW 4.6 mph - N/A   Overcast
3:52 AM 35.6 °F 29.2 °F 35.6 °F 100% 29.83 in 3.0 mi WNW 8.1 mph - N/A   Overcast
4:13 AM 35.6 °F 30.7 °F 35.6 °F 100% 29.83 in 3.0 mi WNW 5.8 mph - N/A   Overcast
4:32 AM 35.6 °F 31.7 °F 35.6 °F 100% 29.83 in 3.0 mi NW 4.6 mph - N/A   Overcast
4:52 AM 35.6 °F 31.7 °F 35.6 °F 100% 29.83 in 4.0 mi NW 4.6 mph - N/A   Overcast
5:12 AM 35.6 °F 32.8 °F 35.6 °F 100% 29.84 in 3.0 mi NW 3.5 mph - N/A   Overcast
5:32 AM 35.6 °F 32.8 °F 35.6 °F 100% 29.84 in 2.5 mi NW 3.5 mph - N/A   Overcast
5:52 AM 35.6 °F 32.8 °F 35.6 °F 100% 29.85 in 2.5 mi WNW 3.5 mph - N/A   Overcast
6:12 AM 35.6 °F 29.9 °F 35.6 °F 100% 29.85 in 3.0 mi NW 6.9 mph - N/A   Overcast
6:32 AM 35.6 °F 30.7 °F 35.6 °F 100% 29.86 in 3.0 mi NW 5.8 mph - N/A   Overcast
6:53 AM 35.6 °F 29.9 °F 33.8 °F 93% 29.87 in 5.0 mi NW 6.9 mph - N/A   Overcast
7:12 AM 33.8 °F 27.7 °F 33.8 °F 100% 29.88 in 4.0 mi NNW 6.9 mph - N/A   Overcast
7:32 AM 33.8 °F 30.8 °F 33.8 °F 100% 29.88 in 2.0 mi NW 3.5 mph - N/A   Overcast
7:53 AM 33.8 °F 27.7 °F 33.8 °F 100% 29.89 in 2.0 mi NNW 6.9 mph - N/A   Overcast
8:12 AM 33.8 °F 28.6 °F 33.8 °F 100% 29.89 in 1.8 mi North 5.8 mph - N/A   Overcast
8:32 AM 33.8 °F 30.8 °F 33.8 °F 100% 29.90 in 2.0 mi WNW 3.5 mph - N/A   Overcast
8:53 AM 33.8 °F 29.6 °F 33.8 °F 100% 29.91 in 2.0 mi WNW 4.6 mph - N/A   Overcast
9:12 AM 33.8 °F - 33.8 °F 100% 29.92 in 2.5 mi Calm Calm - N/A   Overcast
9:32 AM 33.8 °F 28.6 °F 33.8 °F 100% 29.92 in 2.5 mi North 5.8 mph - N/A   Overcast
9:53 AM 33.8 °F - 33.8 °F 100% 29.93 in 2.0 mi Calm Calm - N/A   Overcast
10:12 AM 35.6 °F 31.7 °F 33.8 °F 93% 29.92 in 2.5 mi North 4.6 mph - N/A   Overcast
10:52 AM 35.6 °F - 33.8 °F 93% 29.94 in 4.0 mi Calm Calm - N/A   Overcast
11:12 AM 35.6 °F - 35.6 °F 100% 29.94 in 4.0 mi Calm Calm - N/A   Overcast
11:33 AM 35.6 °F - 35.6 °F 100% 29.95 in 5.0 mi Calm Calm - N/A   Overcast
11:52 AM 37.4 °F - 35.6 °F 93% 29.95 in 5.0 mi Calm Calm - N/A   Overcast
12:12 PM 37.4 °F - 35.6 °F 93% 29.93 in 5.0 mi Calm Calm - N/A   Overcast
12:32 PM 39.2 °F 35.0 °F 35.6 °F 87% 29.92 in 5.0 mi East 5.8 mph - N/A   Overcast
12:52 PM 39.2 °F 33.6 °F 37.4 °F 93% 29.91 in 7.0 mi East 8.1 mph - N/A   Overcast
1:12 PM 42.8 °F 38.0 °F 37.4 °F 81% 29.90 in 7.0 mi East 8.1 mph - N/A   Scattered Clouds
1:32 PM 44.6 °F 40.2 °F 37.4 °F 76% 29.89 in 10.0 mi ESE 8.1 mph - N/A   Clear
1:52 PM 46.4 °F 42.4 °F 39.2 °F 76% 29.88 in 7.0 mi ESE 8.1 mph - N/A   Clear
2:12 PM 48.2 °F - 39.2 °F 71% 29.88 in 10.0 mi SE 8.1 mph - N/A   Clear
2:32 PM 48.2 °F - 39.2 °F 71% 29.87 in 10.0 mi ESE 8.1 mph - N/A   Clear
2:43 PM 50.0 °F - 41.0 °F 71% 29.85 in 10.0 mi ESE 9.2 mph - N/A   Clear
3:58 PM 51.8 °F - 42.8 °F 71% 29.84 in 10.0 mi SSE 13.8 mph - N/A   Clear
4:12 PM 51.8 °F - 44.6 °F 76% 29.84 in 10.0 mi SE 12.7 mph - N/A   Scattered Clouds
4:32 PM 51.8 °F - 42.8 °F 71% 29.84 in 10.0 mi SSE 15.0 mph - N/A   Scattered Clouds
4:52 PM 51.8 °F - 42.8 °F 71% 29.83 in 7.0 mi SSE 13.8 mph - N/A   Clear
5:12 PM 51.8 °F - 44.6 °F 76% 29.82 in 10.0 mi SE 11.5 mph - N/A   Scattered Clouds
5:33 PM 53.6 °F - 44.6 °F 72% 29.81 in 10.0 mi SSE 12.7 mph 17.3 mph N/A   Scattered Clouds
5:52 PM 53.6 °F - 44.6 °F 72% 29.79 in 10.0 mi ESE 13.8 mph - N/A   Scattered Clouds
6:12 PM 53.6 °F - 44.6 °F 72% 29.79 in 7.0 mi SE 11.5 mph - N/A   Scattered Clouds
6:33 PM 51.8 °F - 44.6 °F 76% 29.79 in 10.0 mi SE 10.4 mph - N/A   Mostly Cloudy
6:52 PM 51.8 °F - 44.6 °F 76% 29.78 in 10.0 mi SE 9.2 mph - N/A   Overcast
7:12 PM 51.8 °F - 44.6 °F 76% 29.78 in 10.0 mi ESE 9.2 mph - N/A   Mostly Cloudy
7:32 PM 51.8 °F - 44.6 °F 76% 29.78 in 10.0 mi SE 8.1 mph - N/A   Mostly Cloudy
7:52 PM 51.8 °F - 44.6 °F 76% 29.77 in 10.0 mi ESE 6.9 mph - N/A   Mostly Cloudy
8:12 PM 51.8 °F - 44.6 °F 76% 29.77 in 10.0 mi East 8.1 mph - N/A   Overcast
8:32 PM 51.8 °F - 44.6 °F 76% 29.78 in 10.0 mi East 3.5 mph - N/A   Overcast
8:52 PM 51.8 °F - 44.6 °F 76% 29.79 in 10.0 mi ESE 4.6 mph - N/A   Overcast
9:12 PM 50.0 °F - 44.6 °F 82% 29.80 in 7.0 mi Calm Calm - N/A Rain Light Rain
9:32 PM 48.2 °F - 46.4 °F 93% 29.80 in 7.0 mi East 3.5 mph - 0.01 in Rain Light Rain
9:52 PM 48.2 °F - 46.4 °F 93% 29.78 in 7.0 mi ENE 6.9 mph - N/A Rain Light Rain
10:12 PM 48.2 °F - 46.4 °F 93% 29.76 in 5.0 mi NE 9.2 mph - N/A Rain Light Rain
10:33 PM 48.2 °F - 46.4 °F 93% 29.75 in 5.0 mi ENE 10.4 mph - 0.01 in Rain Light Rain
10:52 PM 46.4 °F 42.4 °F 46.4 °F 100% 29.74 in 5.0 mi NE 8.1 mph - 0.01 in Rain Rain
11:12 PM 46.4 °F 41.9 °F 44.6 °F 93% 29.73 in 5.0 mi ENE 9.2 mph - 0.02 in Rain Rain
11:32 PM 46.4 °F 42.9 °F 44.6 °F 93% 29.74 in 7.0 mi NE 6.9 mph - 0.02 in Rain Light Rain
11:52 PM 46.4 °F 44.3 °F 44.6 °F 93% 29.75 in 5.0 mi North 4.6 mph - N/A Rain Light Rain